Time,TemperatureF,DewpointF,PressureIn,WindDirection,WindDirectionDegrees,WindSpeedMPH,WindSpeedGustMPH,Humidity,HourlyPrecipIn,Conditions,Clouds,dailyrainin,SoftwareType,DateUTC
2017-05-25 00:03:00,55.7,40.0,29.74,SW,220,2.0,-999.0,55,-99.99,,,0.00,weatherlink.com 1.10,2017-05-25 07:03:00,
2017-05-25 00:18:00,54.8,40.0,29.73,NW,326,0.0,-999.0,57,-99.99,,,0.00,weatherlink.com 1.10,2017-05-25 07:18:00,
2017-05-25 00:33:00,54.2,40.0,29.73,East,98,0.0,-999.0,60,-99.99,,,0.00,weatherlink.com 1.10,2017-05-25 07:33:00,
2017-05-25 00:48:00,54.4,41.0,29.73,South,175,0.0,-999.0,61,-99.99,,,0.00,weatherlink.com 1.10,2017-05-25 07:48:00,
2017-05-25 01:03:00,53.9,41.0,29.73,ENE,73,2.0,-999.0,61,-99.99,,,0.00,weatherlink.com 1.10,2017-05-25 08:03:00,
2017-05-25 01:18:00,53.5,41.0,29.73,ESE,106,1.0,-999.0,62,-99.99,,,0.00,weatherlink.com 1.10,2017-05-25 08:18:00,
2017-05-25 01:33:00,52.5,41.0,29.73,ESE,106,0.0,-999.0,65,-99.99,,,0.00,weatherlink.com 1.10,2017-05-25 08:33:00,
2017-05-25 01:48:00,51.4,41.0,29.72,West,271,2.0,-999.0,68,-99.99,,,0.00,weatherlink.com 1.10,2017-05-25 08:48:00,
2017-05-25 02:03:00,51.6,41.0,29.72,South,178,0.0,-999.0,67,-99.99,,,0.00,weatherlink.com 1.10,2017-05-25 09:03:00,
2017-05-25 02:18:00,51.4,41.0,29.72,SW,236,1.0,-999.0,67,-99.99,,,0.00,weatherlink.com 1.10,2017-05-25 09:18:00,
2017-05-25 02:33:00,51.4,41.0,29.72,SW,230,0.0,-999.0,68,-99.99,,,0.00,weatherlink.com 1.10,2017-05-25 09:33:00,
2017-05-25 02:48:00,51.6,41.0,29.72,South,170,0.0,-999.0,68,-99.99,,,0.00,weatherlink.com 1.10,2017-05-25 09:48:00,
2017-05-25 03:03:00,51.7,41.0,29.71,SSE,167,0.0,-999.0,68,-99.99,,,0.00,weatherlink.com 1.10,2017-05-25 10:03:00,
2017-05-25 03:18:00,51.3,41.0,29.72,ESE,116,0.0,-999.0,69,-99.99,,,0.00,weatherlink.com 1.10,2017-05-25 10:18:00,
2017-05-25 03:33:00,50.4,41.0,29.72,ESE,115,0.0,-999.0,71,-99.99,,,0.00,weatherlink.com 1.10,2017-05-25 10:33:00,
2017-05-25 03:48:00,49.8,41.0,29.72,ESE,119,0.0,-999.0,72,-99.99,,,0.00,weatherlink.com 1.10,2017-05-25 10:48:00,
2017-05-25 04:03:00,48.8,41.0,29.71,SE,142,0.0,-999.0,75,-99.99,,,0.00,weatherlink.com 1.10,2017-05-25 11:03:00,
2017-05-25 04:18:00,48.6,41.0,29.71,SE,142,0.0,-999.0,75,-99.99,,,0.00,weatherlink.com 1.10,2017-05-25 11:18:00,
2017-05-25 04:33:00,49.2,42.0,29.71,ESE,115,0.0,-999.0,75,-99.99,,,0.00,weatherlink.com 1.10,2017-05-25 11:33:00,
2017-05-25 04:48:00,48.0,41.0,29.70,ESE,115,0.0,-999.0,78,-99.99,,,0.00,weatherlink.com 1.10,2017-05-25 11:48:00,
2017-05-25 05:03:00,46.8,41.0,29.70,ESE,115,0.0,-999.0,80,-99.99,,,0.00,weatherlink.com 1.10,2017-05-25 12:03:00,
2017-05-25 05:18:00,46.2,41.0,29.71,ESE,115,0.0,-999.0,81,-99.99,,,0.00,weatherlink.com 1.10,2017-05-25 12:18:00,
2017-05-25 05:33:00,45.7,41.0,29.71,ESE,115,0.0,-999.0,83,-99.99,,,0.00,weatherlink.com 1.10,2017-05-25 12:33:00,
2017-05-25 05:49:00,44.8,41.0,29.71,ESE,115,0.0,-999.0,85,-99.99,,,0.00,weatherlink.com 1.10,2017-05-25 12:49:00,
2017-05-25 06:03:00,44.1,40.0,29.71,ESE,115,0.0,-999.0,85,-99.99,,,0.00,weatherlink.com 1.10,2017-05-25 13:03:00,
2017-05-25 06:18:00,43.9,40.0,29.72,ESE,115,0.0,-999.0,86,-99.99,,,0.00,weatherlink.com 1.10,2017-05-25 13:18:00,
2017-05-25 06:33:00,44.5,40.0,29.72,ESE,115,0.0,-999.0,85,-99.99,,,0.00,weatherlink.com 1.10,2017-05-25 13:33:00,
2017-05-25 06:49:00,45.4,40.0,29.72,ESE,115,0.0,-999.0,82,-99.99,,,0.00,weatherlink.com 1.10,2017-05-25 13:49:00,
2017-05-25 07:04:00,46.5,41.0,29.72,ESE,115,1.0,-999.0,81,-99.99,,,0.00,weatherlink.com 1.10,2017-05-25 14:04:00,
2017-05-25 07:19:00,49.6,42.0,29.72,ESE,121,0.0,-999.0,76,-99.99,,,0.00,weatherlink.com 1.10,2017-05-25 14:19:00,
2017-05-25 07:34:00,51.3,44.0,29.71,WSW,241,1.0,-999.0,75,-99.99,,,0.00,weatherlink.com 1.10,2017-05-25 14:34:00,
2017-05-25 07:49:00,52.2,44.0,29.71,SW,227,3.0,-999.0,73,-99.99,,,0.00,weatherlink.com 1.10,2017-05-25 14:49:00,
2017-05-25 08:04:00,53.3,44.0,29.71,ENE,63,0.0,-999.0,70,-99.99,,,0.00,weatherlink.com 1.10,2017-05-25 15:04:00,
2017-05-25 08:19:00,54.2,45.0,29.71,WSW,247,0.0,-999.0,71,-99.99,,,0.00,weatherlink.com 1.10,2017-05-25 15:19:00,
2017-05-25 08:34:00,55.1,45.0,29.71,SW,229,2.0,-999.0,68,-99.99,,,0.00,weatherlink.com 1.10,2017-05-25 15:34:00,
2017-05-25 08:49:00,55.6,43.0,29.71,WSW,252,5.0,-999.0,64,-99.99,,,0.00,weatherlink.com 1.10,2017-05-25 15:49:00,
2017-05-25 09:04:00,56.2,44.0,29.71,SE,144,1.0,-999.0,65,-99.99,,,0.00,weatherlink.com 1.10,2017-05-25 16:04:00,
2017-05-25 09:19:00,57.2,45.0,29.71,WNW,286,0.0,-999.0,65,-99.99,,,0.00,weatherlink.com 1.10,2017-05-25 16:19:00,
2017-05-25 09:34:00,57.5,44.0,29.70,WSW,252,3.0,-999.0,62,-99.99,,,0.00,weatherlink.com 1.10,2017-05-25 16:34:00,
2017-05-25 09:49:00,58.7,46.0,29.70,WNW,300,2.0,-999.0,62,-99.99,,,0.00,weatherlink.com 1.10,2017-05-25 16:49:00,
2017-05-25 10:04:00,58.9,44.0,29.70,West,260,6.0,-999.0,58,-99.99,,,0.00,weatherlink.com 1.10,2017-05-25 17:04:00,
2017-05-25 10:19:00,59.9,46.0,29.70,WNW,303,2.0,-999.0,61,-99.99,,,0.00,weatherlink.com 1.10,2017-05-25 17:19:00,
2017-05-25 10:34:00,61.2,45.0,29.70,SW,223,4.0,-999.0,55,-99.99,,,0.00,weatherlink.com 1.10,2017-05-25 17:34:00,
2017-05-25 10:49:00,62.0,46.0,29.69,West,267,3.0,-999.0,57,-99.99,,,0.00,weatherlink.com 1.10,2017-05-25 17:49:00,
2017-05-25 11:04:00,62.4,44.0,29.68,WSW,240,2.0,-999.0,52,-99.99,,,0.00,weatherlink.com 1.10,2017-05-25 18:04:00,
2017-05-25 11:19:00,63.5,44.0,29.68,SE,133,0.0,-999.0,50,-99.99,,,0.00,weatherlink.com 1.10,2017-05-25 18:19:00,
2017-05-25 11:34:00,64.5,45.0,29.67,SSE,160,1.0,-999.0,50,-99.99,,,0.00,weatherlink.com 1.10,2017-05-25 18:34:00,
2017-05-25 11:49:00,66.0,44.0,29.67,SW,225,5.0,-999.0,46,-99.99,,,0.00,weatherlink.com 1.10,2017-05-25 18:49:00,
2017-05-25 12:04:00,66.4,44.0,29.67,WSW,246,4.0,-999.0,45,-99.99,,,0.00,weatherlink.com 1.10,2017-05-25 19:04:00,
2017-05-25 12:19:00,67.6,45.0,29.66,WSW,255,0.0,-999.0,44,-99.99,,,0.00,weatherlink.com 1.10,2017-05-25 19:19:00,
2017-05-25 12:34:00,68.8,47.0,29.66,SSE,155,2.0,-999.0,46,-99.99,,,0.00,weatherlink.com 1.10,2017-05-25 19:34:00,
2017-05-25 12:49:00,69.6,44.0,29.65,West,260,2.0,-999.0,40,-99.99,,,0.00,weatherlink.com 1.10,2017-05-25 19:49:00,
2017-05-25 13:04:00,70.9,45.0,29.64,West,261,0.0,-999.0,40,-99.99,,,0.00,weatherlink.com 1.10,2017-05-25 20:04:00,
2017-05-25 13:19:00,72.0,45.0,29.64,SE,141,1.0,-999.0,38,-99.99,,,0.00,weatherlink.com 1.10,2017-05-25 20:19:00,
2017-05-25 13:34:00,73.2,44.0,29.64,South,186,0.0,-999.0,35,-99.99,,,0.00,weatherlink.com 1.10,2017-05-25 20:34:00,
2017-05-25 13:49:00,74.0,39.0,29.64,WSW,257,3.0,-999.0,28,-99.99,,,0.00,weatherlink.com 1.10,2017-05-25 20:49:00,
2017-05-25 14:04:00,74.6,44.0,29.64,SSW,213,3.0,-999.0,34,-99.99,,,0.00,weatherlink.com 1.10,2017-05-25 21:04:00,
2017-05-25 14:19:00,75.3,49.0,29.62,SSW,202,0.0,-999.0,39,-99.99,,,0.00,weatherlink.com 1.10,2017-05-25 21:19:00,
2017-05-25 14:34:00,76.0,51.0,29.62,NW,313,0.0,-999.0,41,-99.99,,,0.00,weatherlink.com 1.10,2017-05-25 21:34:00,
2017-05-25 14:50:00,76.3,41.0,29.61,ESE,107,0.0,-999.0,28,-99.99,,,0.00,weatherlink.com 1.10,2017-05-25 21:50:00,
2017-05-25 15:05:00,76.7,41.0,29.61,East,101,2.0,-999.0,28,-99.99,,,0.00,weatherlink.com 1.10,2017-05-25 22:05:00,
2017-05-25 15:20:00,77.0,40.0,29.61,South,181,5.0,-999.0,27,-99.99,,,0.00,weatherlink.com 1.10,2017-05-25 22:20:00,
2017-05-25 15:35:00,78.1,41.0,29.60,WSW,249,0.0,-999.0,27,-99.99,,,0.00,weatherlink.com 1.10,2017-05-25 22:35:00,
2017-05-25 15:50:00,78.6,42.0,29.60,ENE,73,3.0,-999.0,27,-99.99,,,0.00,weatherlink.com 1.10,2017-05-25 22:50:00,
2017-05-25 16:05:00,78.1,45.0,29.59,West,262,3.0,-999.0,31,-99.99,,,0.00,weatherlink.com 1.10,2017-05-25 23:05:00,
2017-05-25 16:20:00,78.8,45.0,29.59,SW,229,2.0,-999.0,30,-99.99,,,0.00,weatherlink.com 1.10,2017-05-25 23:20:00,
2017-05-25 16:35:00,78.6,46.0,29.59,WSW,248,2.0,-999.0,32,-99.99,,,0.00,weatherlink.com 1.10,2017-05-25 23:35:00,
2017-05-25 16:50:00,77.9,47.0,29.59,SSW,200,0.0,-999.0,33,-99.99,,,0.00,weatherlink.com 1.10,2017-05-25 23:50:00,
2017-05-25 17:05:00,78.5,43.0,29.59,SW,217,0.0,-999.0,28,-99.99,,,0.00,weatherlink.com 1.10,2017-05-26 00:05:00,
2017-05-25 17:20:00,78.5,43.0,29.59,West,263,0.0,-999.0,28,-99.99,,,0.00,weatherlink.com 1.10,2017-05-26 00:20:00,
2017-05-25 17:35:00,77.7,45.0,29.59,WSW,244,5.0,-999.0,31,-99.99,,,0.00,weatherlink.com 1.10,2017-05-26 00:35:00,
2017-05-25 17:50:00,77.0,46.0,29.59,West,269,7.0,-999.0,33,-99.99,,,0.00,weatherlink.com 1.10,2017-05-26 00:50:00,
2017-05-25 18:05:00,76.5,43.0,29.59,SE,136,0.0,-999.0,30,-99.99,,,0.00,weatherlink.com 1.10,2017-05-26 01:05:00,
2017-05-25 18:20:00,75.4,44.0,29.59,WNW,300,0.0,-999.0,33,-99.99,,,0.00,weatherlink.com 1.10,2017-05-26 01:20:00,
2017-05-25 18:35:00,75.1,47.0,29.60,WSW,256,1.0,-999.0,37,-99.99,,,0.00,weatherlink.com 1.10,2017-05-26 01:35:00,
2017-05-25 18:50:00,74.2,46.0,29.60,NNW,340,3.0,-999.0,37,-99.99,,,0.00,weatherlink.com 1.10,2017-05-26 01:50:00,
2017-05-25 19:05:00,73.5,48.0,29.61,WSW,249,0.0,-999.0,41,-99.99,,,0.00,weatherlink.com 1.10,2017-05-26 02:05:00,
2017-05-25 19:20:00,72.5,46.0,29.60,West,265,3.0,-999.0,39,-99.99,,,0.00,weatherlink.com 1.10,2017-05-26 02:20:00,
2017-05-25 19:35:00,71.5,47.0,29.61,SSW,203,2.0,-999.0,42,-99.99,,,0.00,weatherlink.com 1.10,2017-05-26 02:35:00,
2017-05-25 19:50:00,70.1,45.0,29.62,WSW,252,2.0,-999.0,40,-99.99,,,0.00,weatherlink.com 1.10,2017-05-26 02:50:00,
2017-05-25 20:05:00,68.1,45.0,29.63,SW,233,2.0,-999.0,43,-99.99,,,0.00,weatherlink.com 1.10,2017-05-26 03:05:00,
2017-05-25 20:20:00,66.1,45.0,29.64,SW,233,0.0,-999.0,46,-99.99,,,0.00,weatherlink.com 1.10,2017-05-26 03:20:00,
2017-05-25 20:35:00,64.5,45.0,29.64,SW,233,0.0,-999.0,49,-99.99,,,0.00,weatherlink.com 1.10,2017-05-26 03:35:00,
2017-05-25 20:50:00,62.9,45.0,29.65,SW,233,0.0,-999.0,52,-99.99,,,0.00,weatherlink.com 1.10,2017-05-26 03:50:00,
2017-05-25 21:05:00,60.9,47.0,29.66,SW,233,0.0,-999.0,61,-99.99,,,0.00,weatherlink.com 1.10,2017-05-26 04:05:00,
2017-05-25 21:20:00,59.2,47.0,29.66,SW,233,0.0,-999.0,64,-99.99,,,0.00,weatherlink.com 1.10,2017-05-26 04:20:00,
2017-05-25 21:35:00,58.6,48.0,29.67,SW,233,0.0,-999.0,67,-99.99,,,0.00,weatherlink.com 1.10,2017-05-26 04:35:00,
2017-05-25 21:50:00,57.8,48.0,29.68,SW,233,0.0,-999.0,69,-99.99,,,0.00,weatherlink.com 1.10,2017-05-26 04:50:00,
2017-05-25 22:05:00,56.3,47.0,29.68,SW,233,0.0,-999.0,72,-99.99,,,0.00,weatherlink.com 1.10,2017-05-26 05:05:00,
2017-05-25 22:20:00,55.0,46.0,29.69,SSW,211,0.0,-999.0,71,-99.99,,,0.00,weatherlink.com 1.10,2017-05-26 05:20:00,
2017-05-25 22:35:00,55.1,47.0,29.69,SSW,211,0.0,-999.0,75,-99.99,,,0.00,weatherlink.com 1.10,2017-05-26 05:35:00,
2017-05-25 22:50:00,54.5,46.0,29.70,SSW,211,0.0,-999.0,73,-99.99,,,0.00,weatherlink.com 1.10,2017-05-26 05:50:00,
2017-05-25 23:05:00,53.9,46.0,29.71,SSW,211,0.0,-999.0,74,-99.99,,,0.00,weatherlink.com 1.10,2017-05-26 06:05:00,
2017-05-25 23:20:00,53.3,46.0,29.70,SSW,211,0.0,-999.0,75,-99.99,,,0.00,weatherlink.com 1.10,2017-05-26 06:20:00,